[[{"header":{"parameterUnit":"m.s-1","parameterCategory":1,"la1":30.2991,"la2":30.254,"lo1":-89.0895,"lo2":-89.0444,"dy":0.0017,"dx":0.0017,"nx":28,"ny":28,"refTime":"2025-07-21T09:00:00:Z","depth":0,"parameterNumber":2,"parameterNumberName":"U-component_of_WINDS"},"data":[0,0,0,0,0,0,0,0,0,0,0,0,0,0,0,0,0,0,0,0,0,0,0,0,0,0,0,0,0,0,0,0,0,0,0,0,0,0,0,0,0,0,0,0,0,0,0,0,0,0,0,0,0,0,0,0,0,0,3.6886,3.6887,0,3.6932,3.6932,3.6933,3.6787,3.6783,3.6778,3.6774,3.6827,3.6832,3.6838,0,0,0,0,0,0,0,0,0,0,0,0,0,3.6679,3.6683,3.6886,3.6887,3.6887,3.6932,3.6932,3.6933,3.6788,3.6783,3.6777,3.6772,3.6825,3.6831,3.6838,0,0,0,0,0,0,0,0,0,0,0,0,0,3.6751,3.6685,3.6886,3.682,3.6815,3.6932,3.6932,3.6933,3.6789,3.6782,3.6776,3.677,3.6823,3.6831,3.6839,3.7023,0,0,3.6864,3.6868,0,0,0,0,0,0,0,0,3.6748,3.6759,3.6829,3.6825,3.6819,3.6847,3.6878,3.6964,3.6791,3.6799,3.6774,3.6766,3.6839,3.6846,3.6869,3.7026,3.7028,3.6865,3.687,3.6874,3.6876,0,0,0,0,0,0,0,3.6743,3.6756,3.6904,3.6831,3.6824,3.679,3.6793,3.6894,3.6856,3.6798,3.6787,3.6794,3.6835,3.6861,3.6869,3.7029,3.6865,3.6872,3.6877,3.6881,3.7339,3.7346,0,0,0,0,0,0,3.6745,3.6753,3.6903,3.6906,3.6766,3.6799,3.6802,3.6845,3.6854,3.6849,3.68,3.6787,3.685,3.686,3.6871,3.7086,3.6874,3.6881,3.6886,3.7332,3.7341,3.7348,0,0,0,0,0,0,3.6742,3.676,3.6901,3.6827,3.6842,3.681,3.6859,3.6849,3.6875,3.6856,3.6849,3.6833,3.6846,3.6859,3.6986,3.7086,3.6885,3.6893,3.7324,3.7335,3.7345,3.752,0,0,0,0,0,0,3.6736,3.676,3.6828,3.6829,3.6846,3.7015,3.6865,3.6855,3.6889,3.6873,3.6886,3.6881,3.6841,3.6974,3.6994,3.7094,3.6899,3.7314,3.7328,3.7341,3.7505,3.7535,3.7561,0,0,0,0,0,3.6729,3.6877,3.6832,3.6851,3.6931,3.702,3.703,3.698,3.6898,3.6967,3.6955,3.6881,3.7072,3.6989,3.701,3.7113,3.7308,3.7324,3.734,3.7492,3.7529,3.756,0,0,0,0,0,0,3.689,3.6876,3.6826,3.6978,3.7001,3.6996,3.7081,3.7021,3.7069,3.7052,3.6989,3.6994,3.7132,3.7136,3.7043,3.7292,3.7176,3.7197,3.7284,3.7319,3.7347,3.7343,3.6906,0,0,0,0,0,3.6943,3.7015,3.6999,3.7135,3.7149,3.7114,3.7151,3.711,3.7132,3.7142,3.7139,3.7165,3.7231,3.7276,3.7335,3.7505,3.7506,3.7587,3.7615,3.7638,3.7657,3.7747,3.7782,3.7402,3.7402,3.7401,0,0,3.7053,3.7054,3.7104,3.7167,3.718,3.7258,3.7123,3.7211,3.7268,3.7156,3.7274,3.7274,3.7299,3.7449,3.7514,3.7456,3.7763,3.7659,3.7678,3.7684,3.7767,3.7803,3.7835,3.7413,3.7411,3.7409,0,0,3.7293,3.7301,3.7414,3.743,3.7452,3.7427,3.7455,3.7459,3.7453,3.7572,3.7489,3.7557,3.7672,3.7693,3.7719,3.7969,3.7902,3.799,3.8137,3.8225,3.8255,3.8281,3.8369,3.8402,3.8009,3.801,3.801,0,3.7427,3.7539,3.7481,3.7574,3.7605,3.7505,3.762,3.764,3.7681,3.7705,3.7638,3.778,3.779,3.7942,3.8003,3.8028,3.8058,3.7987,3.8255,3.8281,3.8304,3.8388,3.8421,3.802,3.8019,3.8018,3.8017,0,3.7703,3.7782,3.7871,3.7911,3.7952,3.8057,3.8016,3.8065,3.8021,3.8004,3.8127,3.8135,3.8194,3.8228,3.8187,3.8376,3.8338,3.8265,3.8147,3.8352,3.8429,3.8461,3.8035,3.8031,3.8028,3.8025,0,0,3.8043,3.805,3.8083,3.81,3.8117,3.8178,3.8279,3.8335,3.8378,3.8411,3.8493,3.8593,3.8525,3.8554,3.8515,3.8593,3.8789,3.8509,3.8509,3.856,3.8996,3.905,3.9088,3.8746,3.8752,3.8757,3.8994,0,3.8277,3.8447,3.8398,3.8569,3.8641,3.8549,3.8637,3.8658,3.8646,3.8707,3.8694,3.8765,3.867,3.8687,3.876,3.875,3.8876,3.8732,3.8823,3.8827,3.8817,3.9128,3.9186,3.9409,3.9024,3.9029,3.9032,0,3.8573,3.8615,3.8793,3.8797,3.8826,3.8905,3.8953,3.9013,3.9035,3.9021,3.9055,3.9,3.91,3.8983,3.912,3.9024,3.9058,3.9059,3.9067,3.9072,3.8941,3.9141,3.9479,3.9512,3.908,3.9076,3.9073,0,3.8802,3.8903,3.9022,3.904,3.9049,3.9107,3.9114,3.9129,3.9166,3.9209,3.9233,3.9288,3.9318,3.9363,3.9325,3.9243,3.9468,3.9348,3.9459,3.9461,3.9509,3.9506,3.9857,3.9536,3.9535,3.9534,3.9534,0,3.9067,3.9179,3.9124,3.9198,3.9321,3.9265,3.9389,3.9386,3.9401,3.9473,3.9398,3.9468,3.9414,3.9479,3.9451,3.9568,3.9583,3.9575,3.9566,3.958,3.9581,3.9601,3.9584,3.9543,3.9541,3.954,3.9538,0,3.9342,3.931,3.9433,3.9432,3.9435,3.9525,3.9525,3.9593,3.9576,3.9668,3.9686,3.966,3.9733,3.97,3.9777,3.9758,3.9909,3.988,3.9901,3.9893,4.0005,3.9995,4.0378,4.0426,4.0076,4.008,4.0083,0,3.9513,3.9596,3.9604,3.9646,3.9658,3.9727,3.9764,3.9714,3.9756,3.9788,3.9853,3.9919,3.9969,4.0091,4.0079,4.0138,4.0109,4.024,4.0117,4.0129,4.0109,4.0103,4.0111,4.0263,4.0268,4.0271,4.0274,0,3.9819,3.9799,3.9854,3.9905,3.9951,3.9989,4.0021,4.006,4.0012,4.0063,4.0136,4.0175,4.0253,4.032,4.0371,4.038,4.032,4.0313,4.0341,4.0356,4.0363,4.0359,3.9966,4.0303,4.03,4.0298,4.0297,4.0295,4.0045,4.0115,4.0131,4.0196,4.0214,4.0246,4.031,4.03,4.036,4.0418,4.0386,4.0471,4.0493,4.0556,4.0573,4.0639,4.0588,4.063,4.064,4.0651,4.0665,4.0355,4.0649,4.0648,4.0647,4.0647,4.0646,0,4.0345,4.0351,4.0412,4.0457,4.0509,4.0447,4.0479,4.0527,4.0602,4.0627,4.0677,4.0761,4.0826,4.082,4.088,4.0934,4.0908,4.0952,4.0946,4.0949,4.0708,4.0676,4.0972,4.0972,4.0972,4.0972,4.0972,4.0972,4.0507,4.0621,4.0604,4.0728,4.0733,4.0815,4.0839,4.0868,4.0887,4.0984,4.1036,4.1032,4.1045,4.1105,4.1162,4.1159,4.1183,4.1237,4.1224,4.0998,4.0966,4.0935,4.0905,4.1243,4.1244,4.1458,4.146,4.1462]},{"header":{"parameterUnit":"m.s-1","parameterCategory":1,"la1":30.2991,"la2":30.254,"lo1":-89.0895,"lo2":-89.0444,"dy":0.0017,"dx":0.0017,"nx":28,"ny":28,"refTime":"2025-07-21T09:00:00:Z","depth":0,"parameterNumber":3,"parameterNumberName":"V-component_of_WINDS"},"data":[0,0,0,0,0,0,0,0,0,0,0,0,0,0,0,0,0,0,0,0,0,0,0,0,0,0,0,0,0,0,0,0,0,0,0,0,0,0,0,0,0,0,0,0,0,0,0,0,0,0,0,0,0,0,0,0,0,0,1.9876,1.9878,0,2.0031,2.0033,2.0035,2.0044,2.0042,2.004,2.0039,2.0196,2.0202,2.0208,0,0,0,0,0,0,0,0,0,0,0,0,0,1.9584,1.959,1.9876,1.9878,1.988,2.0031,2.0033,2.0035,2.0044,2.0042,2.004,2.0038,2.0194,2.0201,2.0208,0,0,0,0,0,0,0,0,0,0,0,0,0,1.9723,1.9591,1.9875,1.9902,1.9906,2.0031,2.0033,2.0036,2.0045,2.0042,2.0039,2.0037,2.0192,2.0201,2.0209,2.0317,0,0,2.0236,2.024,0,0,0,0,0,0,0,0,1.9715,1.9733,1.9896,1.9901,1.9905,2.0016,1.9988,2.013,2.0045,1.9992,2.0038,2.0035,2.0138,2.0151,2.0186,2.0324,2.0331,2.0237,2.0242,2.0246,2.0249,0,0,0,0,0,0,0,1.9705,1.9727,1.9937,1.9899,1.9904,1.9906,1.9923,2.0015,2.0078,1.9996,1.9997,2.0016,2.014,2.0178,2.019,2.0334,2.0237,2.0245,2.025,2.0253,2.0567,2.057,0,0,0,0,0,0,1.9691,1.9719,1.9932,1.9942,1.9802,1.9913,1.9932,1.9983,2.0077,2.0089,2.0018,2.0016,2.0164,2.018,2.0196,2.0328,2.0246,2.0254,2.0259,2.0564,2.0567,2.0571,0,0,0,0,0,0,1.9684,1.971,1.9926,1.9831,1.9858,1.9921,1.9978,1.9987,2.0025,2.0093,2.0105,2.0045,2.0163,2.0183,2.0287,2.0333,2.0258,2.0266,2.056,2.0565,2.0569,2.0593,0,0,0,0,0,0,1.9676,1.9707,1.9749,1.9832,1.9863,2.0015,1.9981,1.9992,2.004,2.0039,2.0122,2.0133,2.0162,2.0274,2.0295,2.0344,2.0273,2.0556,2.0562,2.0568,2.0588,2.0597,2.0606,0,0,0,0,0,1.9665,1.975,1.9752,1.9777,1.9918,2.0018,2.0036,2.0069,2.0044,2.0087,2.013,2.013,2.0324,2.0284,2.0309,2.0361,2.0554,2.0561,2.0567,2.0584,2.0596,2.0605,0,0,0,0,0,0,1.9671,1.9761,1.9764,1.9878,1.994,2.0019,2.0074,2.008,2.015,2.0146,2.0182,2.0201,2.0303,2.0342,2.0296,2.0469,2.0436,2.0448,2.044,2.0452,2.0461,2.0449,2.028,0,0,0,0,0,1.9686,1.9761,1.9835,1.9928,1.9959,2.0011,2.0056,2.0075,2.0142,2.0168,2.0219,2.0283,2.0358,2.0407,2.048,2.0593,2.0611,2.0641,2.065,2.0657,2.0667,2.0729,2.0743,2.0593,2.0593,2.0593,0,0,1.9717,1.9775,1.982,1.993,1.9981,2.0057,2.0033,2.0115,2.0171,2.018,2.0281,2.0321,2.0394,2.0503,2.0553,2.0538,2.0712,2.0665,2.067,2.0677,2.0737,2.0751,2.0764,2.0598,2.0597,2.0596,0,0,1.9811,1.9863,1.9946,1.9997,2.0075,2.0109,2.0128,2.0207,2.0234,2.0336,2.0344,2.0411,2.054,2.0592,2.0635,2.0748,2.075,2.0771,2.0817,2.0876,2.0888,2.0899,2.0939,2.0953,2.078,2.078,2.078,0,1.984,1.9955,1.9988,2.007,2.0117,2.0129,2.0213,2.0261,2.0358,2.039,2.0372,2.0534,2.0584,2.0704,2.0732,2.0767,2.079,2.0762,2.0884,2.0895,2.0905,2.0944,2.0959,2.0782,2.0782,2.0782,2.0782,0,1.9986,2.0066,2.0123,2.0217,2.0271,2.0354,2.0398,2.0449,2.0463,2.0498,2.0601,2.0662,2.0747,2.0777,2.0792,2.0899,2.0888,2.0876,2.0844,2.0921,2.0958,2.0973,2.0785,2.0784,2.0784,2.0783,0,0,2.009,2.02,2.0221,2.0263,2.0348,2.041,2.0492,2.0576,2.0619,2.0685,2.0754,2.0863,2.0853,2.0901,2.0922,2.0974,2.1059,2.0957,2.0959,2.0973,2.1181,2.1189,2.1206,2.1061,2.1064,2.1066,2.1175,0,2.0194,2.0342,2.0373,2.05,2.0573,2.0585,2.0656,2.0716,2.0751,2.0818,2.0856,2.0932,2.0913,2.0943,2.0995,2.1038,2.1102,2.103,2.1125,2.1128,2.1107,2.1225,2.1234,2.1334,2.119,2.1192,2.1194,0,2.0336,2.0406,2.054,2.0615,2.0647,2.0711,2.079,2.0854,2.0921,2.0943,2.0997,2.1011,2.1096,2.1059,2.1176,2.1127,2.1167,2.1194,2.1198,2.1209,2.1166,2.1239,2.1367,2.1381,2.1217,2.1215,2.1213,0,2.0398,2.0525,2.0622,2.0658,2.0748,2.0792,2.0832,2.0897,2.0945,2.1013,2.1044,2.1121,2.1164,2.1223,2.1257,2.1227,2.1371,2.1337,2.1391,2.139,2.1421,2.1419,2.1557,2.1447,2.1447,2.1446,2.1446,0,2.0511,2.0593,2.0651,2.0711,2.0802,2.0837,2.0926,2.0965,2.1022,2.1089,2.1103,2.1165,2.1207,2.1274,2.1301,2.1394,2.1412,2.1432,2.1438,2.1431,2.1428,2.1458,2.1452,2.145,2.1449,2.1449,2.1448,0,2.0596,2.0639,2.0745,2.0821,2.0842,2.0906,2.0971,2.1029,2.1064,2.1148,2.1169,2.1224,2.1304,2.1344,2.1444,2.1462,2.1566,2.1568,2.1543,2.1546,2.1598,2.1592,2.1761,2.1784,2.1658,2.1659,2.166,0,2.0666,2.0729,2.0812,2.0858,2.0899,2.0973,2.1022,2.1057,2.1108,2.1189,2.1237,2.1317,2.1384,2.1511,2.1559,2.1635,2.1639,2.1693,2.1651,2.1641,2.164,2.1636,2.1642,2.17,2.1702,2.1703,2.1703,0,2.0785,2.0803,2.0873,2.0951,2.1009,2.1072,2.1134,2.1171,2.1216,2.1272,2.1354,2.1406,2.1508,2.1588,2.1667,2.1706,2.1713,2.1716,2.1733,2.1726,2.1709,2.1719,2.1564,2.1712,2.1711,2.1711,2.171,2.171,2.0865,2.0921,2.0988,2.1066,2.1116,2.1174,2.1232,2.1274,2.1343,2.1429,2.1446,2.1533,2.1598,2.1705,2.1747,2.1815,2.1803,2.1827,2.1833,2.1839,2.1841,2.1698,2.1829,2.1829,2.1829,2.1829,2.1829,0,2.0984,2.1028,2.1099,2.1185,2.1246,2.1247,2.1315,2.1366,2.1443,2.1503,2.1569,2.1663,2.174,2.1794,2.1872,2.1916,2.1921,2.1935,2.1932,2.1941,2.1847,2.1825,2.193,2.193,2.193,2.193,2.193,2.193,2.1054,2.1149,2.1174,2.1295,2.1338,2.1424,2.1462,2.1515,2.1563,2.1668,2.1733,2.1767,2.1825,2.1907,2.1977,2.1991,2.2019,2.2034,2.2047,2.1959,2.1948,2.1938,2.1917,2.204,2.204,2.2136,2.2137,2.2137]}]]